This is the latest recevied weather packets stored in our database for station/object KM4RT-13. If no packets are shown the sender has not sent any weather packets the latest 10 day(s).
| Time | Temp. | Humidity | Pressure | Rain* | Wind** | Luminosity | Snow |
|---|---|---|---|---|---|---|---|
| 1777995777 | 15° C | 99% | 1007.8 hPa | 10.67 mm | - | 17 W/m² | - |
| 1777995473 | 15° C | 99% | 1007.5 hPa | 10.67 mm | - | 23 W/m² | - |
| 1777995170 | 15° C | 99% | 1007.8 hPa | 10.16 mm | - | 16 W/m² | - |
| 1777994868 | 15° C | 99% | 1008 hPa | 8.89 mm | - | 17 W/m² | - |
| 1777994564 | 15° C | 99% | 1007.7 hPa | 7.11 mm | - | 15 W/m² | - |
| 1777994258 | 15° C | 99% | 1007.5 hPa | 7.87 mm | - | 18 W/m² | - |
| 1777993956 | 15° C | 99% | 1007.5 hPa | 7.87 mm | - | 16 W/m² | - |
| 1777993652 | 15° C | 99% | 1007.3 hPa | 6.1 mm | - | 26 W/m² | - |
| 1777993350 | 15° C | 99% | 1007.4 hPa | 4.83 mm | - | 21 W/m² | - |
| 1777993044 | 15° C | 99% | 1007.3 hPa | 4.83 mm | - | 23 W/m² | - |
| 1777992743 | 15° C | 99% | 1007.8 hPa | 6.1 mm | - | 36 W/m² | - |
| 1777992440 | 15° C | 99% | 1007.4 hPa | 6.1 mm | - | 43 W/m² | - |
| 1777992138 | 15° C | 98% | 1007 hPa | 6.1 mm | - | 43 W/m² | - |
| 1777991835 | 15° C | 98% | 1007 hPa | 4.83 mm | - | 48 W/m² | - |
| 1777991532 | 15° C | 98% | 1007.4 hPa | 4.32 mm | - | 40 W/m² | - |
| 1777991229 | 15° C | 97% | 1007.8 hPa | 4.32 mm | - | 37 W/m² | - |
| 1777990927 | 15° C | 97% | 1007.6 hPa | 4.83 mm | - | 44 W/m² | - |
| 1777990625 | 15° C | 96% | 1007.5 hPa | 4.83 mm | - | 41 W/m² | - |
| 1777990017 | 15° C | 95% | 1008.2 hPa | 4.83 mm | - | 23 W/m² | - |
| 1777989714 | 15° C | 95% | 1007.7 hPa | 6.6 mm | - | 23 W/m² | - |
| 1777989410 | 15.56° C | 94% | 1008 hPa | 6.1 mm | - | 20 W/m² | - |
| 1777989107 | 15.56° C | 93% | 1008.2 hPa | 4.32 mm | - | 17 W/m² | - |
| 1777988803 | 15.56° C | 91% | 1008 hPa | 4.83 mm | - | 16 W/m² | - |
| 1777988501 | 16.11° C | 89% | 1007.8 hPa | 3.05 mm | - | 15 W/m² | - |
| 1777988197 | 16.11° C | 87% | 1008 hPa | 1.78 mm | - | 13 W/m² | - |
* Rain latest hour (hover to see other rain measurements)
** Current wind speed in m/s (hover to see current wind gust speed)